TimeEST,TemperatureF,Dew PointF,Humidity,Sea Level PressureIn,VisibilityMPH,Wind Direction,Wind SpeedMPH,Gust SpeedMPH,PrecipitationIn,Events,Conditions,WindDirDegrees,DateUTC
12:15 AM,32.0,17.6,55,30.29,10.0,NNW,18.4,32.2,N/A,,Clear,340,2013-11-20 05:15:00
12:35 AM,32.0,17.6,55,30.29,10.0,NNW,21.9,29.9,N/A,,Clear,340,2013-11-20 05:35:00
12:55 AM,32.0,17.6,55,30.29,10.0,NNW,19.6,26.5,N/A,,Clear,340,2013-11-20 05:55:00
1:15 AM,32.0,17.6,55,30.30,10.0,NNW,19.6,29.9,N/A,,Clear,340,2013-11-20 06:15:00
1:35 AM,32.0,17.6,55,30.30,10.0,North,21.9,27.6,N/A,,Clear,350,2013-11-20 06:35:00
1:55 AM,32.0,17.6,55,30.32,10.0,North,18.4,28.8,N/A,,Clear,350,2013-11-20 06:55:00
2:15 AM,32.0,17.6,55,30.32,10.0,NNW,19.6,28.8,N/A,,Clear,340,2013-11-20 07:15:00
2:35 AM,32.0,17.6,55,30.33,10.0,North,17.3,29.9,N/A,,Clear,350,2013-11-20 07:35:00
2:55 AM,32.0,17.6,55,30.35,10.0,North,13.8,29.9,N/A,,Clear,10,2013-11-20 07:55:00
3:15 AM,32.0,17.6,55,30.35,10.0,North,16.1,25.3,N/A,,Clear,350,2013-11-20 08:15:00
3:35 AM,32.0,17.6,55,30.35,10.0,North,16.1,26.5,N/A,,Clear,350,2013-11-20 08:35:00
3:55 AM,32.0,17.6,55,30.36,10.0,North,19.6,25.3,N/A,,Clear,350,2013-11-20 08:55:00
4:15 AM,32.0,17.6,55,30.38,10.0,North,15.0,23.0,N/A,,Clear,360,2013-11-20 09:15:00
4:35 AM,32.0,15.8,51,30.39,10.0,North,17.3,23.0,N/A,,Clear,350,2013-11-20 09:35:00
4:55 AM,30.2,15.8,55,30.39,10.0,North,18.4,25.3,N/A,,Clear,350,2013-11-20 09:55:00
5:15 AM,30.2,15.8,55,30.41,10.0,NNW,13.8,21.9,N/A,,Clear,340,2013-11-20 10:15:00
5:35 AM,30.2,15.8,55,30.42,10.0,North,15.0,20.7,N/A,,Clear,350,2013-11-20 10:35:00
5:55 AM,30.2,15.8,55,30.44,10.0,North,11.5,20.7,N/A,,Clear,350,2013-11-20 10:55:00
6:15 AM,30.2,15.8,55,30.45,10.0,NNW,11.5,19.6,N/A,,Clear,340,2013-11-20 11:15:00
6:35 AM,30.2,15.8,55,30.46,10.0,North,12.7,19.6,N/A,,Clear,350,2013-11-20 11:35:00
6:55 AM,30.2,15.8,55,30.48,10.0,NNW,10.4,17.3,N/A,,Clear,340,2013-11-20 11:55:00
7:15 AM,30.2,14.0,51,30.49,10.0,North,9.2,-,N/A,,Clear,350,2013-11-20 12:15:00
7:35 AM,30.2,14.0,51,30.49,10.0,North,13.8,19.6,N/A,,Clear,350,2013-11-20 12:35:00
7:55 AM,32.0,14.0,48,30.49,10.0,North,13.8,23.0,N/A,,Clear,350,2013-11-20 12:55:00
8:15 AM,32.0,14.0,48,30.51,10.0,NNE,13.8,18.4,N/A,,Clear,20,2013-11-20 13:15:00
8:35 AM,32.0,14.0,48,30.51,10.0,North,15.0,24.2,N/A,,Clear,360,2013-11-20 13:35:00
8:55 AM,32.0,14.0,48,30.52,10.0,North,15.0,23.0,N/A,,Clear,10,2013-11-20 13:55:00
9:15 AM,32.0,14.0,48,30.53,10.0,North,13.8,21.9,N/A,,Clear,350,2013-11-20 14:15:00
9:35 AM,33.8,14.0,44,30.53,10.0,North,12.7,18.4,N/A,,Clear,360,2013-11-20 14:35:00
9:55 AM,33.8,14.0,44,30.54,10.0,North,9.2,20.7,N/A,,Clear,350,2013-11-20 14:55:00
10:15 AM,33.8,14.0,44,30.55,10.0,NE,10.4,17.3,N/A,,Clear,40,2013-11-20 15:15:00
10:35 AM,35.6,12.2,38,30.54,10.0,North,10.4,-,N/A,,Clear,360,2013-11-20 15:35:00
10:55 AM,35.6,14.0,41,30.53,10.0,North,13.8,17.3,N/A,,Clear,350,2013-11-20 15:55:00
11:15 AM,37.4,14.0,38,30.53,10.0,North,9.2,-,N/A,,Clear,360,2013-11-20 16:15:00
11:35 AM,37.4,14.0,38,30.53,10.0,North,10.4,-,N/A,,Clear,10,2013-11-20 16:35:00
11:55 AM,37.4,14.0,38,30.53,10.0,North,12.7,17.3,N/A,,Clear,360,2013-11-20 16:55:00
12:15 PM,39.2,14.0,36,30.53,10.0,North,8.1,16.1,N/A,,Clear,10,2013-11-20 17:15:00
12:35 PM,39.2,12.2,33,30.53,10.0,North,8.1,-,N/A,,Clear,360,2013-11-20 17:35:00
12:55 PM,39.2,12.2,33,30.52,10.0,NNE,10.4,-,N/A,,Clear,20,2013-11-20 17:55:00
1:15 PM,41.0,12.2,31,30.52,10.0,NNE,8.1,-,N/A,,Clear,20,2013-11-20 18:15:00
1:35 PM,41.0,12.2,31,30.52,10.0,NNE,8.1,-,N/A,,Clear,20,2013-11-20 18:35:00
1:55 PM,39.2,12.2,33,30.52,10.0,NNE,6.9,-,N/A,,Clear,20,2013-11-20 18:55:00
2:15 PM,39.2,12.2,33,30.52,10.0,North,8.1,18.4,N/A,,Clear,360,2013-11-20 19:15:00
2:35 PM,39.2,12.2,33,30.53,10.0,North,5.8,-,N/A,,Clear,360,2013-11-20 19:35:00
2:55 PM,39.2,12.2,33,30.53,10.0,NNE,8.1,-,N/A,,Clear,20,2013-11-20 19:55:00
3:15 PM,39.2,12.2,33,30.54,10.0,North,4.6,-,N/A,,Clear,350,2013-11-20 20:15:00
3:35 PM,39.2,14.0,36,30.54,10.0,NW,4.6,-,N/A,,Clear,310,2013-11-20 20:35:00
3:55 PM,37.4,14.0,38,30.55,10.0,WNW,3.5,-,N/A,,Clear,300,2013-11-20 20:55:00
4:15 PM,37.4,14.0,38,30.55,10.0,NW,3.5,-,N/A,,Clear,320,2013-11-20 21:15:00
4:35 PM,37.4,14.0,38,30.56,10.0,Calm,Calm,-,N/A,,Clear,0,2013-11-20 21:35:00
4:55 PM,35.6,14.0,41,30.56,10.0,NNW,3.5,-,N/A,,Clear,330,2013-11-20 21:55:00
5:15 PM,33.8,14.0,44,30.56,10.0,NNW,3.5,-,N/A,,Clear,330,2013-11-20 22:15:00
5:35 PM,33.8,14.0,44,30.56,10.0,NNW,4.6,-,N/A,,Clear,330,2013-11-20 22:35:00
5:55 PM,33.8,14.0,44,30.57,10.0,NW,4.6,-,N/A,,Clear,320,2013-11-20 22:55:00
6:15 PM,32.0,14.0,48,30.57,10.0,NW,4.6,-,N/A,,Clear,320,2013-11-20 23:15:00
6:35 PM,32.0,14.0,48,30.57,10.0,NW,3.5,-,N/A,,Clear,310,2013-11-20 23:35:00
6:55 PM,32.0,14.0,48,30.58,10.0,NW,3.5,-,N/A,,Clear,320,2013-11-20 23:55:00
7:15 PM,32.0,12.2,44,30.59,10.0,NW,4.6,-,N/A,,Clear,310,2013-11-21 00:15:00
7:35 PM,32.0,12.2,44,30.59,10.0,NW,3.5,-,N/A,,Clear,310,2013-11-21 00:35:00
7:55 PM,32.0,14.0,48,30.59,10.0,NW,3.5,-,N/A,,Clear,320,2013-11-21 00:55:00
8:15 PM,33.8,12.2,41,30.59,10.0,North,4.6,-,N/A,,Clear,350,2013-11-21 01:15:00
8:35 PM,32.0,12.2,44,30.59,10.0,NNW,3.5,-,N/A,,Clear,340,2013-11-21 01:35:00
8:55 PM,32.0,12.2,44,30.59,10.0,North,3.5,-,N/A,,Clear,350,2013-11-21 01:55:00
9:15 PM,32.0,12.2,44,30.60,10.0,Calm,Calm,-,N/A,,Clear,0,2013-11-21 02:15:00
9:35 PM,32.0,12.2,44,30.60,10.0,North,4.6,-,N/A,,Clear,360,2013-11-21 02:35:00
9:55 PM,32.0,12.2,44,30.60,10.0,North,3.5,-,N/A,,Clear,10,2013-11-21 02:55:00
10:15 PM,32.0,12.2,44,30.60,10.0,NW,3.5,-,N/A,,Clear,320,2013-11-21 03:15:00
10:35 PM,32.0,12.2,44,30.60,10.0,North,3.5,-,N/A,,Clear,350,2013-11-21 03:35:00
10:55 PM,32.0,12.2,44,30.61,10.0,NNW,3.5,-,N/A,,Clear,330,2013-11-21 03:55:00
11:15 PM,32.0,12.2,44,30.61,10.0,NNW,4.6,-,N/A,,Clear,330,2013-11-21 04:15:00
11:35 PM,32.0,12.2,44,30.61,10.0,North,4.6,-,N/A,,Clear,350,2013-11-21 04:35:00
11:55 PM,32.0,12.2,44,30.62,10.0,NNW,4.6,-,N/A,,Clear,340,2013-11-21 04:55:00